User: anonymous   Login
Location: Mascot Post Office (historical)
(40.2645°N, 99.5462°W)
Time: 22:51:39
(UTC+00:00)
Language:

GEOS 3 Rocket - Orbit

View from above orbital plane
View from above orbital plane
View from above satellite
View from above satellite

Ground track
Ground track

The orbit data is extracted from the following two-line orbital elements,

1  7735U 75027B   20272.44318674 -.00000130 +00000-0 +20617-4 0  9998
2  7735 114.9783 271.2440 0054940 281.6705 077.8214 14.24616550360998
Epoch (UTC): 28 September 2020 10:38:11
Eccentricity: 0.0054940
inclination: 114.9783°
perigee height: 770 km
apogee height: 849 km
right ascension of ascending node: 271.2440°
argument of perigee: 281.6705°
revolutions per day: 14.24616550
mean anomaly at epoch: 77.8214°
orbit number at epoch: 36099

The dashed part of the orbit path shows where the satellite is in the earth's shadow,  

DLR